Other Public Products
Issued by NWS Grand Forks, ND

Home | Current Version | Previous Version | Text Only | Print | Product List | Glossary Off
Versions: 1 2 3 4 5 6 7 8 9 10 11 12 13 14 15 16 17 18 19 20 21 22 23 24 25 26 27 28 29 30 31 32 33 34 35 36 37 38 39 40 41 42 43 44 45 46 47 48 49 50

000
FPUS83 KFGF 230931
OPUFGF
PRAIRIE TO PINES WEATHER ROUNDUP
NATIONAL WEATHER SERVICE EASTERN NORTH DAKOTA/GRAND FORKS ND
400 AM CDT WED APR 23 2014

 **SATELLITE DATA USED TO AUGMENT SKY COVER AT AUTOMATED STATIONS**
 *****  WEATHER ACROSS EASTERN NORTH DAKOTA  *****

CITY           SKY/WX    TMP DP  RH WIND       PRES   REMARKS
GRAND FORKS    MOCLDY    43  28  55 SE13      29.94F
GRAND FORKS AF MOCLDY    38  29  70 SE9       29.94F
GRAND CITY NWS   N/A     43 N/A N/A SE14        N/A
BUXTON           N/A     42  35  73 SE14        N/A
DEVILS LAKE    MOCLDY    43  28  56 SE21      29.85F
FARGO          CLOUDY    48  29  47 SE15      29.94S
WAHPETON ARPT  CLOUDY    46  28  49 SE16G23   29.95S
$$

 *****  WEATHER ACROSS CENTRAL AND WESTERN NORTH DAKOTA  *****

CITY           SKY/WX    TMP DP  RH WIND       PRES   REMARKS
JAMESTOWN      LGT RAIN  48  38  68 SE21G32   29.82F
BISMARCK       CLOUDY    51  40  65 E25G31    29.66F
MINOT          CLOUDY    48  33  56 E22G29    29.68F
MINOT AFB      CLOUDY    46  34  62 E21G30    29.67F
GARRISON         N/A     47  37  68 SE10      29.66F
WILLISTON      CLOUDY    52  33  48 E25G37    29.48F
DICKINSON      LGT RAIN  51  33  50 E22       29.49F
HETTINGER      CLOUDY    52  33  48 E21G26    29.47F
$$

 *****  OTHER OBSERVATIONS NORTHEAST NORTH DAKOTA  *****

CITY           SKY/WX    TMP DP  RH WIND       PRES   REMARKS
WALHALLA       CLOUDY    36  32  87 SE7       29.94F
LANGDON        FAIR      39  27  60 SE18      29.89F
CAVALIER       FAIR      36  28  75 SE8       29.95F
GRAFTON        FAIR      37  28  70 SE9       29.95S
CANDO          FAIR      41  32  70 SE16      29.85F
FORT TOTTEN      N/A     44  31  59 SE13      29.95S
ROLLA          PTSUNNY   37  30  75 SE14      29.85F
RUGBY          FAIR      41  32  70 E21G26    29.77F
 ***** THE ABOVE OBSERVATIONS ARE NON NWS ARE NOT QUALITY
        CONTROLLED AND MAY MIS-REPORT RAIN FOR SNOW...
$$

 *****  OTHER OBSERVATIONS SOUTHEAST NORTH DAKOTA *****

CITY           SKY/WX    TMP DP  RH WIND       PRES   REMARKS
COOPERSTOWN    FAIR      45  32  61 SE21G26   29.87F
VALLEY CITY    PTSUNNY   46  32  57 SE16G24   29.87F
OAKES          CLOUDY    45  45 100 SE20G25   29.83F
GWINNER        CLOUDY    46  43  87 SE24      29.88F
SHEYENNE NWR     N/A     46  33  61 SE12      29.95S
BUFFALO        NOT AVBL
WYNDMERE       NOT AVBL
 ***** THE ABOVE OBSERVATIONS ARE NON NWS ARE NOT QUALITY
       CONTROLLED AND MAY MIS-REPORT RAIN FOR SNOW...
$$

  *****  WEATHER ACROSS NORTHERN MINNESOTA  *****

CITY           SKY/WX    TMP DP  RH WIND       PRES   REMARKS
FLAG ISLAND    CLEAR     34  21  60 CALM      30.05S
WARROAD        CLEAR     30  23  74 E6        30.04S WCI  24
ROSEAU         CLEAR     39  25  56 SE9       30.02S
HALLOCK        CLOUDY    37  27  65 E13       29.96F
THF RVR FALLS  PTCLDY    39  21  48 E12       29.99S
HALSTAD          N/A     39  27  60 SE9         N/A
FOSSTON        MOCLDY    39  19  45 E8        29.99S
BAUDETTE       CLEAR     33  22  63 SE6       30.06S
WASKISH        CLEAR     34  23  64 E5        30.05F
CROOKSTON      MOCLDY    39  28  65 SE9       29.97S
$$
  *****  WEATHER ACROSS CENTRAL AND WEST MINNESOTA  *****

CITY           SKY/WX    TMP DP  RH WIND       PRES   REMARKS
BEMIDJI        PTCLDY    32  20  62 E6        30.02F
PARK RAPIDS    MOCLDY    38  23  55 E6        30.01F
WADENA         CLOUDY    39  27  60 SE8       30.01S
DETROIT LAKES  CLOUDY    43  28  56 SE12      30.00R
MOORHEAD       CLOUDY    46  30  53 SE12G18   29.96S
FERGUS FALLS   CLOUDY    46  25  42 SE15      29.95S
ELBOW LAKE     FAIR      46  29  53 SE15      29.98S
MORRIS MN      DRIZZLE   45  36  70 SE16      29.98R
STAPLES        CLOUDY    39  23  52 SE3       30.02F
WHEATON        LGT RAIN  46  39  76 SE17      29.97F
$$
  *****  WEATHER ELSEWHERE ACROSS MINNESOTA  *****

CITY           SKY/WX    TMP DP  RH WIND       PRES   REMARKS
DULUTH         CLEAR     33  23  66 SE6       30.10S
INTRNTL FALLS  CLEAR     26  22  84 CALM      30.09R
ELY            CLEAR     21  19  93 CALM      30.12R
CLOQUET        CLEAR     30  23  74 CALM      30.10S
BRAINERD       MOCLDY    40  24  53 E3        30.05F
HIBBING        CLEAR     24  20  84 NW3       30.09S
ALEXANDRIA     CLOUDY    44  26  49 SE14G21   30.01S
SAINT CLOUD    CLOUDY    44  24  45 SE6       30.05F
MINNEAPOLIS    CLOUDY    43  26  51 SE10      30.09S
$$

  *****  WEATHER ACROSS SOUTH DAKOTA  *****

CITY           SKY/WX    TMP DP  RH WIND       PRES   REMARKS
SIOUX FALLS    CLOUDY    52  35  52 SE16G25   29.89S
BROOKINGS      NOT AVBL
WATERTOWN      CLOUDY    50  34  54 SE14G25   29.88F
HURON          LGT RAIN  55  34  45 SE20G33   29.76F
SISSETON         N/A     45  40  82 S13       29.93S
ABERDEEN       CLOUDY    51  38  60 E28G36    29.76F
MITCHELL       CLOUDY    52  38  58 SE23      29.80F
PIERRE         CLOUDY    58  32  37 SE28G38   29.55F
MOBRIDGE       CLOUDY    54  33  45 SE25G33   29.58F
RAPID CITY     MOCLDY    54  43  66 S14       29.48F
$$

  *****  SOME WEATHER IN NEARBY STATES *****

CITY           SKY/WX    TMP DP  RH WIND       PRES   REMARKS
GLASGOW MT     MOCLDY    54  31  41 SE22G30   29.35R
GREAT FALLS MT CLOUDY    40  37  89 SW16      29.58R
CHEYENNE WY    MOCLDY    53  33  46 S6        29.61F
SCOTTSBLUFF NE CLOUDY    56  42  59 E12       29.51F
OMAHA NE       PTCLDY    55  34  45 SE17      29.93F
DES MOINES IA  MOCLDY    52  32  46 E9        30.03S
DAVENPORT IA   PTCLDY    37  29  72 E9        30.10S
CHICAGO IL     CLEAR     36  26  67 N6        30.13R
EAU CLAIRE WI  CLEAR     31  25  78 CALM      30.12R
LA CROSSE WI   CLEAR     39  27  62 E6        30.13R
$$

  *****  SOME NATIONAL WEATHER *****

CITY           SKY/WX    TMP DP  RH WIND       PRES   REMARKS
LA GUARDIA NY  MOCLDY    54  41  61 NW18G24   29.51R
RALEIGH NC     PTCLDY    58  53  84 CALM      29.72R
ATLANTA GA     CLEAR     59  56  89 NW10      29.86R
NEW ORLEANS LA CLEAR     64  62  93 CALM      29.93S
OKLAHOMA CITY  PTCLDY    52  42  69 S7        29.90F
ALBUQUERQUE NM CLOUDY    62  29  28 SE5       29.85S
SALT LAKE CITY LGT RAIN  41  39  93 NW14G25   29.90S
LOS ANGELES CA MOCLDY    57  48  72 E5        29.94R
BOISE ID       CLEAR     35  30  82 CALM      29.94S
SEATTLE WA     CLOUDY    44  41  89 S13       29.89S
$$

*** WEATHER ACROSS MANITOBA...SASKATCHEWAN AND ONTARIO ***
                ***ONTARIO***

CITY           SKY/WX    TMP DP  RH WIND       PRES   REMARKS
GERALDTON      CLEAR     19  18  93 CALM      30.10R
THUNDER BAY    CLEAR     23  23 100 W5        30.14R WCI  17
SIOUX LOOKOUT  CLEAR     23  19  86 S3        30.09S
TORONTO        MOCLDY    37  32  81 N22G35    29.78R
BIG TROUT LK   CLOUDY    27  21  80 CALM      30.09S
PICKLE LAKE    NOT AVBL
DRYDEN         CLEAR     34  21  60 S6        30.08F
KENORA         CLEAR     34  21  60 SE5       30.06
$$
                *** MANITOBA***

CITY           SKY/WX    TMP DP  RH WIND       PRES   REMARKS
BRANDON        CLEAR     43  32  65 E14       29.88F
DAUPHIN        CLEAR     39  34  81 E14       29.91F
ISLAND LAKE    NOT AVBL
PILOT MOUND      N/A     39  30  70 E16         N/A
THE PAS        CLEAR     37  30  75 E8          N/A
THOMPSON       CLEAR     28  25  86 NE12      30.11R WCI  18
WINNIPEG       CLEAR     37  21  52 SE13      30.00F
LYNN LAKE      CLEAR     25  23  93 E5        30.13R WCI  19
CHURCHILL      CLOUDY    23  21  93 N13       30.23S WCI  11
GILLAM         MOCLDY   N/A N/A N/A NE10        N/A
$$
                ***SASKATCHEWAN***

CITY           SKY/WX    TMP DP  RH WIND       PRES   REMARKS
ESTEVAN        CLOUDY    45  34  65 E20G25    29.63F
KINDERSLEY     LGT RAIN  48  37  66 E18       29.43F
LLOYDMINSTER   CLOUDY    46  36  66 SE25G38   29.50F
PRINCE ALBERT  MOCLDY    43  32  65 E16G25    29.75F
REGINA         MOCLDY    46  34  61 E26G33    29.60F



USA.gov is the U.S. government's official web portal to all federal, state and local government web resources and services.